Regional Weather Roundup
Issued by NWS

Home | Current Version | Previous Version | Graphics & Text | Print | Product List | Glossary On
Versions: 1 2 3 4 5 6 7 8 9 10 11 12 13 14 15 16 17 18 19 20 21 22 23 24 25 26 27 28 29 30 31 32 33 34 35 36 37 38 39 40 41 42 43 44 45 46 47 48 49 50
340
ASUS43 KLMK 270110
RWRKY
KENTUCKY REGIONAL WEATHER ROUNDUP
NATIONAL WEATHER SERVICE LOUISVILLE KY
900 PM EDT MON SEP 26 2016

NOTE "FAIR" INDICATES FEW OR NO CLOUDS BELOW 12,000 FEET
WITH NO SIGNIFICANT WEATHER AND/OR OBSTRUCTIONS TO VISIBILITY.

KYZ001>023-026-027-061>063-070>075-270200-
WESTERN AND SOUTH CENTRAL KENTUCKY

CITY           SKY/WX    TMP DP  RH WIND       PRES   REMARKS
PADUCAH        CLEAR     57  53  86 CALM      30.09R
HENDERSON      CLEAR     57  48  72 CALM      30.07S
OWENSBORO      CLEAR    N/A N/A N/A VRB6      30.08R
HOPKINSVILLE   CLEAR     60  55  83 CALM      30.09R
BOWLING GREEN  CLEAR     61  54  77 CALM      30.10R
GLASGOW        PTCLDY    58  58 100 CALM      30.10R
$$

KYZ024-025-028>034-038-045-046-053-270200-
NORTH CENTRAL KENTUCKY

CITY           SKY/WX    TMP DP  RH WIND       PRES   REMARKS
LOUISVILLE/SDF PTCLDY    63  52  67 SW5       30.08R
LOUISVILLE/LOU CLEAR     61  51  70 CALM      30.08R
FORT KNOX      CLEAR     55  54  95 SW1       30.07R
$$

KYZ035>037-039>044-047>052-055>060-089>105-270200-
NORTHEAST KENTUCKY

CITY           SKY/WX    TMP DP  RH WIND       PRES   REMARKS
LEXINGTON      CLOUDY    60  52  74 W3        30.09R
COVINGTON      PTCLDY    59  51  75 SW3       30.05R
FRANKFORT      CLOUDY    58  52  80 SW3       30.07R
$$

KYZ054-064>069-076>088-106>120-270200-
SOUTHEAST KENTUCKY

CITY           SKY/WX    TMP DP  RH WIND       PRES   REMARKS
JACKSON        CLOUDY    64  59  83 NW3       30.08R
LONDON         CLOUDY    67  59  75 NW7       30.08R
SOMERSET       CLOUDY    63  57  82 CALM      30.10R
MIDDLESBORO    PTCLDY    71  66  85 CALM      30.06R
MONTICELLO     CLOUDY    64  60  87 NW8G17    30.11R
$$





USA.gov is the U.S. government's official web portal to all federal, state and local government web resources and services.